Content
SEND FEEDBACK

Daily
Averages
Monthly
Summary
Canada

VANCOUVER - CITY HALL, BRITISH COLUMBIA


Home > North America > Canada > British Columbia
Elevation: 283 feet     Latitude: 49 17N     Longitude: 123 07W

WEATHER
 
SELECT A DAY
Number of Records: 171,833;   Date Range: 4/23/95 - 9/30/14
 
SHARE

PRINT THIS DATA

[ ← Previous Day ]
WEATHER ALMANAC - SEPTEMBER 15, 2013
[ Next Day → ]
[ °C ]   °F
Weather ElementAverageHighLow
Temperature59.2 °F62.1 °F (7:00 pm)56 °F (5:00 am)
Dewpoint57.5 °F59.5 °F (12:00 pm)55 °F (5:00 am)
Humidity93.9 %96 % (1:00 am)86 % (11:00 pm)
Barometer29.75 in29.81 in (10:00 pm)29.72 in (10:00 am)
Wind Speed1.4 mph5.8 mph (10:00 pm)
Weather ElementAverage
Wind DirectionENE (79.6 °)

Weather ElementTotal
Precipitation0.18 in
Heating Degree Days6 (Base 65)
Growing Degree Days9.1 (Base 50)
Averaged from 27 records on September 15, 2013
WEATHER CONDITIONS BREAKOUT
WIND DIRECTION BREAKOUT
WEATHER BY HOUR - SEPTEMBER 15, 2013
[ °C ]   °F
Local TimeTemperatureDewpointHumidityBarometerVisibilityWind DirectionWind SpeedGust SpeedPrecipitationEventsConditions
1:00 AM57.2 °F55.9 °F96 %29.77 inCalm
2:00 AM57.0 °F55.8 °F96 %29.77 inCalm
3:00 AM57.4 °F56.1 °F96 %29.76 inCalm
4:00 AM57.2 °F55.9 °F96 %29.75 inCalm
5:00 AM56.0 °F55.0 °F96 %29.74 inCalm
5:00 AM56.5 °F55.2 °F96 %29.74 inCalm
6:00 AM57.0 °F55.8 °F96 %29.73 inCalm
7:00 AM57.0 °F55.8 °F96 %29.74 inCalm
8:00 AM57.7 °F56.5 °F96 %29.73 inCalm
9:00 AM59.0 °F57.7 °F96 %29.73 inCalm
10:00 AM59.9 °F58.6 °F96 %29.72 inSE (130°)1.2 mph
11:00 AM60.0 °F59.0 °F95 %29.72 inCalm
11:00 AM60.3 °F59.0 °F96 %29.72 inCalm
12:00 PM60.8 °F59.5 °F96 %29.76 inEast (100°)1.2 mph
1:00 PM60.6 °F59.2 °F95 %29.79 inESE (120°)2.3 mph
2:00 PM60.6 °F58.6 °F93 %29.73 inNorth (360°)2.3 mph
3:00 PM61.3 °F57.9 °F89 %29.73 inNW (320°)2.3 mph
4:00 PM61.2 °F57.9 °F89 %29.75 inSSW (210°)1.2 mph
5:00 PM59.0 °F57.0 °F91 %29.77 inESE (110°)1.2 mph
5:00 PM59.2 °F57.0 °F93 %29.77 inESE (110°)1.2 mph
6:00 PM60.4 °F58.5 °F93 %29.79 inNE (50°)2.3 mph0.02 in
7:00 PM62.1 °F59.5 °F91 %29.75 inNE (50°)3.5 mph
8:00 PM59.0 °F57.4 °F94 %29.80 inESE (110°)3.5 mph0.10 in
9:00 PM59.0 °F57.6 °F95 %29.75 inSE (140°)2.3 mph0.06 in
10:00 PM59.2 °F57.6 °F94 %29.81 inEast (80°)5.8 mph
11:00 PM62.0 °F59.0 °F86 %29.78 inNE (50°)3.5 mph
11:00 PM62.1 °F58.8 °F89 %29.78 inNE (50°)3.5 mph
Hourly data recorded from CWWA, located miles away from Vancouver - City Hall, British Columbia







STORIES FROM OUR PARTNERS